Content
SEND FEEDBACK

Daily
Averages
Monthly
Summary
United States of America

MALDEN, MISSOURI


Home > North America > United States > Missouri
Elevation: 295 feet     Latitude: 36 36N     Longitude: 089 59W

WEATHER
 
SELECT A DAY
Number of Records: 207,614;   Date Range: 1/1/95 - 7/22/14
 
SHARE

PRINT THIS DATA

[ ← Previous Day ]
WEATHER ALMANAC - JANUARY 3, 2014
[ Next Day → ]
[ °C ]   °F
Weather ElementAverageHighLow
Temperature23 °F30 °F (2:53 pm)15.1 °F (4:53 am)
Dewpoint11.5 °F16 °F (8:53 pm)6.1 °F (4:53 am)
Humidity62 %71 % (7:53 am)49 % (1:53 pm)
Barometer30.42 in30.57 in (7:53 am)30.20 in (11:53 pm)
Wind Speed7.2 mph12.7 mph (12:53 pm)
Weather ElementAverage
Visibility10 mi
Wind DirectionSSE (161.7 °)

Weather ElementTotal
Precipitation---
Heating Degree Days42.5 (Base 65)
Averaged from 23 records on January 3, 2014
WEATHER CONDITIONS BREAKOUT
WIND DIRECTION BREAKOUT
WEATHER BY HOUR - JANUARY 3, 2014
[ °C ]   °F
Local TimeTemperatureDewpointHumidityBarometerVisibilityWind DirectionWind SpeedGust SpeedPrecipitationEventsConditions
1:53 AM18.0 °F8.1 °F65 %30.53 in10.0 miNorth (10°)8.1 mphClear
2:53 AM17.1 °F8.1 °F68 %30.53 in10.0 miNorth (350°)4.6 mphClear
3:53 AM16.0 °F7.0 °F68 %30.53 in10.0 miNNW (340°)3.5 mphClear
4:53 AM15.1 °F6.1 °F68 %30.54 in10.0 miNNW (330°)3.5 mphClear
5:53 AM15.1 °F7.0 °F70 %30.55 in10.0 miNorth (10°)3.5 mphClear
6:53 AM15.1 °F7.0 °F70 %30.55 in10.0 miCalmClear
7:53 AM16.0 °F8.1 °F71 %30.57 in10.0 miCalmClear
8:53 AM19.0 °F9.0 °F65 %30.57 in10.0 miEast (100°)6.9 mphClear
9:53 AM19.9 °F10.9 °F68 %30.56 in10.0 miSE (130°)6.9 mphClear
10:53 AM24.1 °F12.0 °F60 %30.52 in10.0 miSouth (180°)11.5 mphClear
11:53 AM26.1 °F10.9 °F53 %30.48 in10.0 miSouth (180°)11.5 mphClear
12:53 PM27.0 °F12.0 °F53 %30.44 in10.0 miSouth (190°)12.7 mphClear
1:53 PM28.0 °F10.9 °F49 %30.40 in10.0 miSouth (170°)10.4 mphClear
2:53 PM30.0 °F14.0 °F51 %30.38 in10.0 miSouth (170°)9.2 mphClear
3:53 PM30.0 °F12.9 °F49 %30.36 in10.0 miSouth (170°)11.5 mphClear
4:53 PM28.9 °F14.0 °F54 %30.34 in10.0 miSouth (180°)8.1 mphClear
5:53 PM28.0 °F15.1 °F58 %30.32 in10.0 miSouth (180°)8.1 mphClear
6:53 PM27.0 °F15.1 °F61 %30.30 in10.0 miSouth (170°)8.1 mphClear
7:53 PM26.1 °F15.1 °F63 %30.28 in10.0 miSouth (170°)6.9 mphClear
8:53 PM26.1 °F16.0 °F66 %30.25 in10.0 miSSE (160°)8.1 mphClear
9:53 PM26.1 °F16.0 °F66 %30.22 in10.0 miSouth (170°)9.2 mphClear
10:53 PM26.1 °F15.1 °F63 %30.22 in10.0 miSouth (180°)5.8 mphClear
11:53 PM25.0 °F15.1 °F66 %30.20 in10.0 miSouth (180°)6.9 mphClear
Hourly data recorded from KPOF, located miles away from Malden, Missouri







STORIES FROM OUR PARTNERS